Tracking 19717 objects as of 24-Jun-2019
HD Live streaming from Space Station
objects crossing your sky now

SCOUT B DEB

Track SCOUT B DEB now!
10-day predictions


NORAD ID: 29178
Int'l Code: 1965-063AC
Perigee: 1,135.2 km
Apogee: 2,380.6 km
Inclination: 69.2 °
Period: 121.6 minutes
Semi major axis: 8128 km
RCS: 0.0023 m2 (small)
Launch date: August 10, 1965
Source: United States (US)
Launch site: WALLOPS ISLAND (WLPIS)

Note: This is SATELLITE DEBRIS
aabbcc
Your satellite tracking list
Your tracking list is empty




NASA's NSSDC Master Catalog

Two Line Element Set (TLE):
1 29178U 65063AC  19125.25048936  .00000372  00000-0  27070-2 0  9992
2 29178  69.2072  75.4004 0766036  16.4635  45.5558 11.84559215608577
Source of the keplerian elements: AFSPC